{"data":{"norad_id":65113,"epoch":"2026-09-21T17:12:22.883328Z","epoch_age_seconds":59666,"freshness":"FRESH","line1":"1 65113U 25168H   26264.71693152 -.00000091  00000+0  71231-4 0  9990","line2":"2 65113  50.0006 339.1645 0011064  41.5968 318.5744 13.29326435 55533","mean_motion":13.29326435,"eccentricity":0.0011064,"inclination_deg":50.0006,"raan_deg":339.1645,"arg_perigee_deg":41.5968,"mean_anomaly_deg":318.5744,"bstar":7.1231e-5,"rev_number":5553,"period_min":108.32553706043,"perigee_km":1140.9765679487,"apogee_km":1157.6332914508,"semimajor_km":7527.4419296998,"source":"CELESTRAK","updated_at":"2026-09-22T09:00:30.139072Z"}}